Regional Weather Roundup
Issued by NWS Sioux Falls, SD

Home | Current Version | Previous Version | Text Only | Print | Product List | Glossary Off
Versions: 1 2 3 4 5 6 7 8 9 10 11 12 13 14 15 16 17 18 19 20 21 22 23 24 25 26 27 28 29 30 31 32 33 34 35 36 37 38 39 40 41 42 43 44 45 46 47 48 49 50

000
ASUS43 KFSD 272210
RWRFSD

WEATHER ROUNDUP FOR SE SOUTH DAKOTA/SW MINNESOTA/NW IOWA
NATIONAL WEATHER SERVICE SIOUX FALLS SD
500 PM CDT SUN MAY 27 2018

NOTE: "FAIR" INDICATES FEW OR NO CLOUDS BELOW 12,000 FEET WITH NO
SIGNIFICANT WEATHER AND OR OBSTRUCTIONS TO VISIBILITY.


SDZ038>040-050-052>070-272300-
SOUTHEAST SOUTH DAKOTA

CITY           SKY/WX    TMP DP  RH WIND       PRES   REMARKS
BROOKINGS      MOSUNNY   96  62  32 SW13      29.78F HX  97
CHAMBERLAIN    MOSUNNY   95  62  33 S18       29.73F HX  95
HURON          MOSUNNY   97  52  21 S22G37    29.71F
MADISON        FAIR      90  57  33 SW16G28   29.80F
MITCHELL       PTSUNNY   95  56  26 S13G30    29.75S
SIOUX FALLS    CLOUDY    93  59  31 SW8       29.78F
WINNER         FAIR      93  62  35 SW17G26   29.76S
YANKTON        MOSUNNY   97  59  28 S10       29.79F HX  96
$$

MNZ071-072-080-081-089-090-097-098-272300-
SOUTHWEST MINNESOTA

CITY           SKY/WX    TMP DP  RH WIND       PRES   REMARKS
FAIRMONT       MOSUNNY   98  55  23 SE7       29.80F HX  96
JACKSON        MOSUNNY   95  55  26 S8        29.82S
LUVERNE        SUNNY     97  50  20 S6G16     29.79F
MARSHALL       SUNNY     99  59  26 SW15G21   29.76F HX  99
MONTEVIDEO     CLOUDY    97  55  24 S23       29.75F HX  95
PIPESTONE      SUNNY     95  57  28 SW14G22   29.81F
REDWOOD FALLS  CLOUDY    94  58  29 E16G23    29.76F
TRACY          CLOUDY    99  57  25 S8G18     29.77F HX  97
WINDOM         CLOUDY    99  61  28 SE8       29.79F HX  99
WORTHINGTON    CLOUDY    99  56  23 SW10      29.82S HX  97
$$

IAZ001>003-012>014-020>022-031-032-NEZ013-014-SDZ071-272300-
NORTHWEST IOWA

CITY           SKY/WX    TMP DP  RH WIND       PRES   REMARKS
CHEROKEE       CLOUDY    95  59  29 S9        29.81F
DENISON        SUNNY     97  59  28 VRB5G15   29.84S HX  96
ESTHERVILLE    MOSUNNY   95  61  32 SE7       29.80F HX  95
ORANGE CITY    SUNNY     99  54  22 S15       29.81S HX  96
SHELDON        MOSUNNY  100  50  18 SW17      29.78F HX  97
SIOUX CITY     MOSUNNY  101  58  24 SW10      29.79F HX 100
SPENCER        MOSUNNY   99  60  27 CALM      29.80F THUNDER HX  99
STORM LAKE     CLOUDY    97  55  24 S5G16     29.82F HX  95
$$

ABBREVIATIONS USED IN REMARKS
   TC - TEMPERATURE IN CELSIUS
  WCI - WIND CHILL INDEX
   HX - HEAT INDEX
  VSB - VISIBILITY





USA.gov is the U.S. government's official web portal to all federal, state and local government web resources and services.